Location: Croisilles
(50.1998°N, 2.8793°E)
Time: 13:11:11
(UTC+00:00)

USA 281 - Pass Details

Date: 21 January 2021
Orbit: 1072 x 1086 km, 106.0° (Epoch: 22 February)

Event Time Altitude Azimuth Distance (km) Brightness Sun altitude
Exits shadow 18:52:40 29° 37° (NE) 1,887 4.1 -23.4°
Drops below altitude 10° 18:57:47 10° 347° (NNW) 2,941 5.6 -24.2°
Sets 19:00:38 0° 336° (NNW) 3,899 6.4 -24.6°
